Location: Emblem
(62.4273°N, 6.4710°E)
Time: 02:11:13
(UTC+02:00)

UWE-3 - Pass Details

Date: 23 March 2023
Orbit: 577 x 669 km, 97.7° (Epoch: 06 June)

Event Time Altitude Azimuth Distance (km) Brightness Sun altitude
Rises 02:50:36 0° 19° (NNE) 3,039 ? -22.2°
Reaches altitude 10° 02:53:07 10° 31° (NNE) 2,115 ? -22.0°
Maximum altitude 02:57:10 29° 92° (E) 1,213 ? -21.7°
Enters shadow 03:00:08 15° 144° (SE) 1,739 ? -21.5°
